| time (UTC) | temp F | wind direction | speed MPH | gust MPH | rain 1hr in | rain 24hr in | rain mn in | humidity % | barometer mb |
| 20260902224513 | 92 | 184 | 9.0 | 16.0 | 0.00 | 0.00 | 0.00 | 70 | 1010.3 |
| 20260902223007 | 93 | 178 | 9.0 | 16.0 | 0.00 | 0.00 | 0.00 | 68 | 1010.3 |
| 20260902221508 | 94 | 155 | 8.0 | 19.0 | 0.00 | 0.00 | 0.00 | 67 | 1010.2 |
| 20260902220007 | 94 | 175 | 10.0 | 18.0 | 0.00 | 0.00 | 0.00 | 63 | 1010.2 |
| 20260902214504 | 94 | 139 | 10.0 | 19.0 | 0.00 | 0.00 | 0.00 | 64 | 1010.2 |
| 20260902213003 | 95 | 180 | 9.0 | 19.0 | 0.00 | 0.00 | 0.00 | 62 | 1010.4 |
| 20260902211601 | 95 | 165 | 11.0 | 19.0 | 0.00 | 0.00 | 0.00 | 62 | 1010.6 |
| 20260902210100 | 96 | 163 | 9.0 | 19.0 | 0.00 | 0.00 | 0.00 | 61 | 1010.8 |
| 20260902204613 | 95 | 167 | 11.0 | 20.0 | 0.00 | 0.00 | 0.00 | 62 | 1010.8 |
| 20260902203057 | 97 | 142 | 9.0 | 17.0 | 0.00 | 0.00 | 0.00 | 59 | 1010.9 |
| 20260902201554 | 96 | 157 | 8.0 | 21.0 | 0.00 | 0.00 | 0.00 | 59 | 1011.2 |
| 20260902200052 | 97 | 138 | 13.0 | 19.0 | 0.00 | 0.00 | 0.00 | 60 | 1011.4 |
| 20260902194557 | 96 | 143 | 9.0 | 19.0 | 0.00 | 0.00 | 0.00 | 61 | 1011.4 |
| 20260902193049 | 97 | 167 | 10.0 | 21.0 | 0.00 | 0.00 | 0.00 | 59 | 1011.5 |
| 20260902191554 | 96 | 190 | 9.0 | 20.0 | 0.00 | 0.00 | 0.00 | 60 | 1011.7 |
| 20260902190046 | 97 | 131 | 8.0 | 17.0 | 0.00 | 0.00 | 0.00 | 60 | 1011.8 |
| 20260902184545 | 97 | 181 | 6.0 | 17.0 | 0.00 | 0.00 | 0.00 | 60 | 1012.0 |
| 20260902183100 | 97 | 153 | 9.0 | 18.0 | 0.00 | 0.00 | 0.00 | 61 | 1012.2 |
| 20260902181539 | 97 | 184 | 7.0 | 21.0 | 0.00 | 0.00 | 0.00 | 59 | 1012.4 |
| 20260902180037 | 98 | 187 | 9.0 | 16.0 | 0.00 | 0.00 | 0.00 | 54 | 1012.7 |
| 20260902174535 | 99 | 134 | 6.0 | 18.0 | 0.00 | 0.00 | 0.00 | 52 | 1012.9 |
| 20260902173050 | 98 | 219 | 5.0 | 17.0 | 0.00 | 0.00 | 0.00 | 54 | 1013.0 |
| 20260902171534 | 98 | 168 | 5.0 | 12.0 | 0.00 | 0.00 | 0.00 | 54 | 1013.3 |
| 20260902170030 | 97 | 210 | 6.0 | 13.0 | 0.00 | 0.00 | 0.00 | 57 | 1013.4 |
| 20260902164529 | 97 | 190 | 5.0 | 11.0 | 0.00 | 0.00 | 0.00 | 56 | 1013.6 |
| 20260902163027 | 95 | 209 | 5.0 | 15.0 | 0.00 | 0.00 | 0.00 | 59 | 1013.7 |
| 20260902161529 | 95 | 176 | 5.0 | 12.0 | 0.00 | 0.00 | 0.00 | 58 | 1013.8 |
| 20260902160023 | 95 | 179 | 8.0 | 16.0 | 0.00 | 0.00 | 0.00 | 58 | 1013.8 |
| 20260902154533 | 94 | 196 | 6.0 | 13.0 | 0.00 | 0.00 | 0.00 | 60 | 1013.8 |
| 20260902153015 | 93 | 187 | 6.0 | 15.0 | 0.00 | 0.00 | 0.00 | 64 | 1013.9 |
| 20260902151511 | 92 | 221 | 6.0 | 14.0 | 0.00 | 0.00 | 0.00 | 65 | 1013.7 |
| 20260902150007 | 90 | 199 | 7.0 | 13.0 | 0.00 | 0.00 | 0.00 | 68 | 1013.7 |
| 20260902144503 | 90 | 221 | 5.0 | 17.0 | 0.00 | 0.00 | 0.00 | 71 | 1013.6 |
| 20260902143103 | 89 | 193 | 5.0 | 12.0 | 0.00 | 0.00 | 0.00 | 74 | 1013.6 |
| 20260902141558 | 88 | 234 | 6.0 | 12.0 | 0.00 | 0.00 | 0.00 | 75 | 1013.6 |
| 20260902140054 | 87 | 229 | 4.0 | 10.0 | 0.00 | 0.00 | 0.00 | 77 | 1013.6 |
| 20260902134552 | 86 | 179 | 5.0 | 9.0 | 0.00 | 0.00 | 0.00 | 78 | 1013.6 |
| 20260902133049 | 85 | 185 | 3.0 | 7.0 | 0.00 | 0.00 | 0.00 | 81 | 1013.4 |
| 20260902131604 | 84 | 208 | 1.0 | 8.0 | 0.00 | 0.00 | 0.00 | 83 | 1013.2 |
| 20260902130054 | 83 | 162 | 0.0 | 5.0 | 0.00 | 0.00 | 0.00 | 85 | 1013.1 |
| 20260902124546 | 82 | 183 | 0.0 | 0.0 | 0.00 | 0.00 | 0.00 | 86 | 1013.2 |
| 20260902123045 | 81 | 167 | 1.0 | 4.0 | 0.00 | 0.00 | 0.00 | 86 | 1012.9 |
| 20260902121546 | 81 | 175 | 0.0 | 3.0 | 0.00 | 0.00 | 0.00 | 86 | 1012.7 |
| 20260902120042 | 81 | 205 | 0.0 | 0.0 | 0.00 | 0.00 | 0.00 | 86 | 1012.8 |
| 20260902114554 | 82 | 175 | 0.0 | 0.0 | 0.00 | 0.00 | 0.00 | 85 | 1012.8 |
| 20260902113040 | 82 | 175 | 0.0 | 1.0 | 0.00 | 0.00 | 0.00 | 85 | 1012.9 |
| 20260902111542 | 82 | 201 | 0.0 | 4.0 | 0.00 | 0.00 | 0.00 | 85 | 1012.8 |
| 20260902110045 | 82 | 207 | 2.0 | 6.0 | 0.00 | 0.00 | 0.00 | 85 | 1012.8 |
| 20260902104541 | 82 | 207 | 0.0 | 5.0 | 0.00 | 0.00 | 0.00 | 84 | 1012.7 |
| 20260902103039 | 82 | 186 | 2.0 | 6.0 | 0.00 | 0.00 | 0.00 | 84 | 1012.5 |
| 20260902101539 | 83 | 192 | 2.0 | 5.0 | 0.00 | 0.00 | 0.00 | 84 | 1012.6 |
| 20260902100034 | 83 | 198 | 3.0 | 7.0 | 0.00 | 0.00 | 0.00 | 84 | 1012.6 |
| 20260902094532 | 83 | 182 | 3.0 | 7.0 | 0.00 | 0.00 | 0.00 | 84 | 1012.6 |
| 20260902093038 | 83 | 184 | 4.0 | 8.0 | 0.00 | 0.00 | 0.00 | 84 | 1012.7 |
| 20260902091530 | 83 | 205 | 3.0 | 13.0 | 0.00 | 0.00 | 0.00 | 83 | 1012.7 |
| 20260902090029 | 83 | 180 | 4.0 | 8.0 | 0.00 | 0.00 | 0.00 | 83 | 1012.8 |
| 20260902084530 | 83 | 186 | 5.0 | 10.0 | 0.00 | 0.00 | 0.00 | 83 | 1012.7 |
| 20260902083034 | 83 | 194 | 4.0 | 10.0 | 0.00 | 0.00 | 0.00 | 82 | 1012.8 |
| 20260902081537 | 83 | 205 | 4.0 | 10.0 | 0.00 | 0.00 | 0.00 | 82 | 1013.1 |
| 20260902080027 | 84 | 190 | 5.0 | 12.0 | 0.00 | 0.00 | 0.00 | 82 | 1013.1 |
| 20260902074521 | 84 | 194 | 5.0 | 13.0 | 0.00 | 0.00 | 0.00 | 82 | 1013.2 |
| 20260902073028 | 84 | 229 | 6.0 | 10.0 | 0.00 | 0.00 | 0.00 | 82 | 1013.4 |
| 20260902071518 | 84 | 198 | 7.0 | 11.0 | 0.00 | 0.00 | 0.00 | 82 | 1013.6 |
| 20260902070015 | 84 | 218 | 7.0 | 14.0 | 0.00 | 0.00 | 0.00 | 82 | 1013.7 |
| 20260902064513 | 84 | 225 | 4.0 | 14.0 | 0.00 | 0.00 | 0.00 | 82 | 1013.8 |
| 20260902063016 | 84 | 221 | 7.0 | 13.0 | 0.00 | 0.00 | 0.00 | 82 | 1013.8 |
| 20260902061514 | 84 | 188 | 5.0 | 12.0 | 0.00 | 0.00 | 0.00 | 81 | 1013.7 |
| 20260902060009 | 84 | 221 | 5.0 | 9.0 | 0.00 | 0.00 | 0.00 | 81 | 1013.7 |
| 20260902054520 | 84 | 180 | 4.0 | 11.0 | 0.00 | 0.00 | 0.00 | 80 | 1013.9 |
| 20260902053007 | 84 | 215 | 5.0 | 12.0 | 0.00 | 0.00 | 0.00 | 80 | 1013.9 |
| 20260902051507 | 85 | 184 | 5.0 | 9.0 | 0.00 | 0.00 | 0.00 | 80 | 1013.9 |
| 20260902050006 | 85 | 177 | 4.0 | 8.0 | 0.00 | 0.00 | 0.00 | 80 | 1014.0 |
| 20260902044502 | 85 | 185 | 4.0 | 10.0 | 0.00 | 0.00 | 0.00 | 80 | 1013.8 |
| 20260902043002 | 85 | 165 | 4.0 | 11.0 | 0.00 | 0.00 | 0.00 | 80 | 1013.8 |
| 20260902041502 | 85 | 164 | 3.0 | 11.0 | 0.00 | 0.00 | 0.00 | 79 | 1013.7 |
| 20260902040001 | 85 | 151 | 3.0 | 9.0 | 0.00 | 0.00 | 0.00 | 79 | 1013.5 |
| 20260902034600 | 85 | 165 | 2.0 | 10.0 | 0.00 | 0.00 | 0.00 | 79 | 1013.4 |
| 20260902033106 | 85 | 159 | 5.0 | 9.0 | 0.00 | 0.00 | 0.00 | 80 | 1013.4 |
| 20260902031559 | 85 | 138 | 5.0 | 9.0 | 0.00 | 0.00 | 0.00 | 80 | 1013.1 |
| 20260902030059 | 86 | 174 | 2.0 | 10.0 | 0.00 | 0.00 | 0.00 | 80 | 1013.0 |
| 20260902024601 | 86 | 146 | 4.0 | 10.0 | 0.00 | 0.00 | 0.00 | 80 | 1012.7 |
| 20260902023057 | 86 | 118 | 5.0 | 8.0 | 0.00 | 0.00 | 0.00 | 80 | 1012.3 |
| 20260902021557 | 86 | 140 | 4.0 | 11.0 | 0.00 | 0.00 | 0.00 | 80 | 1012.2 |
| 20260902020059 | 86 | 171 | 3.0 | 11.0 | 0.00 | 0.00 | 0.00 | 78 | 1011.9 |
| 20260902014556 | 86 | 143 | 5.0 | 12.0 | 0.00 | 0.00 | 0.00 | 78 | 1011.8 |
| 20260902013055 | 86 | 187 | 2.0 | 11.0 | 0.00 | 0.00 | 0.00 | 77 | 1011.5 |
| 20260902011554 | 86 | 109 | 4.0 | 11.0 | 0.00 | 0.00 | 0.00 | 77 | 1011.6 |
| 20260902010055 | 87 | 159 | 8.0 | 13.0 | 0.00 | 0.00 | 0.00 | 76 | 1011.5 |
| 20260902004553 | 87 | 165 | 6.0 | 15.0 | 0.00 | 0.00 | 0.00 | 75 | 1011.4 |
| 20260902003057 | 88 | 178 | 3.0 | 14.0 | 0.00 | 0.00 | 0.00 | 76 | 1011.3 |
| 20260902001552 | 88 | 184 | 6.0 | 15.0 | 0.00 | 0.00 | 0.00 | 74 | 1011.2 |
| 20260902000113 | 88 | 132 | 7.0 | 17.0 | 0.00 | 0.00 | 0.00 | 73 | 1011.2 |
| 20260901234551 | 89 | 139 | 7.0 | 17.0 | 0.00 | 0.00 | 0.00 | 72 | 1011.2 |
| 20260901233050 | 90 | 163 | 7.0 | 16.0 | 0.00 | 0.00 | 0.00 | 69 | 1011.2 |
| 20260901231552 | 91 | 130 | 8.0 | 16.0 | 0.00 | 0.00 | 0.00 | 69 | 1011.0 |
| 20260901230104 | 91 | 172 | 8.0 | 15.0 | 0.00 | 0.00 | 0.00 | 69 | 1011.0 |